Regional Weather Roundup
Issued by NWS

Home | Current Version | Previous Version | Text Only | Print | Product List | Glossary On
Versions: 1 2 3 4 5 6 7 8 9 10 11 12 13 14 15 16 17 18 19 20 21 22 23 24 25 26 27 28 29 30 31 32 33 34 35 36 37 38 39 40 41 42 43 44 45 46 47 48 49 50
000
ASUS43 KTOP 301008
RWRKS

WEATHER ROUNDUP FOR KANSAS
NATIONAL WEATHER SERVICE GOODLAND KS
500 AM CDT TUE AUG 30 2016

NOTE:  "FAIR" INDICATES FEW OR NO CLOUDS BELOW 12,000 FEET WITH NO
SIGNIFICANT WEATHER AND/OR OBSTRUCTIONS TO VISIBILITY.

KSZ001>006-013>018-027>032-041>047-301100-
NORTHWEST KANSAS

CITY           SKY/WX    TMP DP  RH WIND       PRES   REMARKS
GOODLAND       PTCLDY    59  57  93 CALM      30.25S
HAYS           CLOUDY    66  59  77 CALM      30.20R
HILL CITY      MOCLDY    66  64  93 NE3       30.20F FOG
RUSSELL        FOG       67  67 100 N6        30.18S VSB 1/2
$$

KSZ061>065-074>080-084>089-301100-
SOUTHWEST KANSAS

CITY           SKY/WX    TMP DP  RH WIND       PRES   REMARKS
DODGE CITY     CLOUDY    67  67 100 NE3       30.20S FOG
ELKHART          N/A     65  61  87 SW3         N/A
GARDEN CITY    CLOUDY    65  64  97 SW3       30.21F FOG
GREAT BEND     CLOUDY    66  61  82 NE5       30.18S VSB 1/2
LIBERAL        CLOUDY    66  63  88 SW3       30.22S
PRATT          CLOUDY    67  65  96 N5        30.18S
$$

KSZ066>073-081>083-090>101-301100-
SOUTHEAST KANSAS

CITY           SKY/WX    TMP DP  RH WIND       PRES   REMARKS
CHANUTE        PTCLDY    72  71  97 NW3       30.12S
COFFEYVILLE    CLEAR     70  69  97 N3        30.11S
HUTCHINSON     MOCLDY    72  69  90 N5        30.15F
MEDICINE LODGE   N/A     70  68  93 CALM      30.15S
NEWTON         CLOUDY    70  69  97 N5        30.15F
PARSONS        CLEAR     69  68  96 CALM      30.12S
WICHITA INTL   MOCLDY    73  70  90 N3        30.13F
WICHITA JABRA  PTCLDY    70  70 100 CALM      30.13F FOG
WICHITA MCCONL PTCLDY    72  69  92 E5        30.13F
WINFIELD       CLOUDY    73  69  87 E3        30.13S
$$

KSZ007>012-019>026-033>040-048>060-102>105-301100-
NORTHEAST KANSAS

CITY           SKY/WX    TMP DP  RH WIND       PRES   REMARKS
CONCORDIA      RAIN      68  67  96 E5        30.18S FOG
EMPORIA        CLOUDY    72  70  93 NE6       30.14S
LAWRENCE       MOCLDY    71  71 100 E6        30.15S
MANHATTAN      CLOUDY    70  68  93 E3        30.15S
MARYSVILLE     CLOUDY    68  68 100 CALM      30.17S
OLATHE IND     CLOUDY    70  70 100 NE9       30.15F FOG
OLATHE EXE     TSTM      69  69 100 N8        30.15F FOG
SALINA         PTCLDY    71  69  93 N8        30.16S
TOPEKA BILLARD CLEAR     71  68  90 E5        30.15S
TOPEKA FORBES  MOCLDY    72  69  90 E5        30.15S
$$




USA.gov is the U.S. government's official web portal to all federal, state and local government web resources and services.